星链-37663(STARLINK-37663)

导读

STARLINK-37663(NORAD编号69048)是美国SpaceX公司星链(Starlink)星座中的一颗低轨互联网通信卫星,属于星链第二代卫星组网的组成部分,旨在为全球提供高速宽带互联网服务。 星链计划是全球规模最大的低轨卫星星座项目,目前已发射上万颗卫星。根据SpaceX 2026年规划,包括STARLINK-37663在内的约4400颗星链卫星将在2026年把轨道高度从550公里降至480公里,以此降低太空碰撞风险,减少太空碎片,提升近地轨道运行安全,避免卫星故障后长期留轨。

Basic Information
目录编号:
69048
目录名称:
STARLINK-37663
国际标识:
2026-101Z
轨道中心:
EARTH
卫星名称:
星链-37663
卫星全名:
星链-37663(STARLINK-37663)
卫星状态:
在轨 (已飞行122 天)
发射日期:
2026-05-06 UTC
国别 :
美国 (US)
星等 :
--
Orbit Information
数据来源 国际轨道数据 AOE轨道数据
星历时间 2026-09-05T12:11:55+0800
4小时前
查看轨道信息
2026-09-03T00:00:00+0800
2天前
查看轨道信息
半长轴 6843.68km 6843.617km
偏心率 0.0001747 0.0001721
轨道倾角 97.284° 97.285°
近地点辐角 100.191° 111.887°
升交点赤经 101.928° 99.456°
平近点角 259.953° 90.580°
近地点 464.347km 464.302km
远地点 466.739km 466.658km
周期 93.906分钟 93.905分钟
每日圈数 15.334452 15.334665
Detailed Information
固有亮度:
5
最大亮度:
2.5
卫星平台:
Starlink V1.0
覆盖范围:
全球
运营商:
太空探索技术公司
运营商所在国:
美国
制造商(研发单位):
太空探索技术公司
制造商所在国:
美国
使用方式:
暂无
Satellite Introduction
Starlink 计划是 SpaceX 推出的全球卫星互联网项目,通过发射低轨道卫星,为全球尤其是偏远地区提供高速、低延迟的互联网服务。自 2019 年起,Starlink 已部署数千颗卫星,旨在缩小全球数字鸿沟,推动互联网普及。该项目还为军事、航空等行业提供通信支持,带来广泛经济效益。
2D Orbit Map
3D Orbit Map
Orbit Altitude Analysis Chart
Orbit Inclination Analysis Chart
Orbit Comprehensive Analysis Chart
View Comprehensive Chart
Conjunction Data List
Event ID Objects TCA Miss Dist (km) Collision Risk Probability Collision Risk Index (CRI) Action
CDM_260906-041904-742406-904824
OBJECT M (47424)
2026-09-06T
04:19:11+0000
2.047 km
极远距离
2.731152E-6 低风险 0.44
CDM_260905-152205-245806-904821
2026-09-05T
15:22:58+0000
2.592 km
极远距离
1.547832E-6 低风险 0.39
CDM_260902-112404-868506-904822
2026-09-02T
11:24:17+0000
2.886 km
极远距离
1.354361E-6 低风险 0.38
CDM_260905-191705-245806-904821
2026-09-05T
19:17:47+0000
2.895 km
极远距离
1.317377E-6 低风险 0.37
CDM_260907-022206-295706-904821
2026-09-07T
02:22:21+0000
2.754 km
极远距离
8.770407E-7 极低风险 0.34